Temperature
1 1 1 1 1 1 1 1 0 -0 -0 1 1 1 1 1 1 1 1 1 1 1 1 1 1 1 1 1 1 1 1 1 1 1 1 1 1 1
1 1 1 0 0 0 0 0 0 0 -0 0 0 0 0 0 0 0 0 0 0 1 1 0 0 0 0 0 0 0 0 0 0 0 0 0 0 0
0 0 0 0 -0 -0 -0 -0 -0 -0 -1 -0 -0 -0 -0 -0 -0 -0 -0 -0 -0 -0 0 -0 -0 -0 -0 -0 -0 -0 -0 -0 -0 -0 -0 -0 -0 -0
-0 -0 -0 -0 -1 -1 -1 -1 -1 -1 -1 -1 -1 -1 -1 -1 -1 -1 -1 -1 -1 -1 -1 -1 -1 -1 -1 -1 -1 -1 -1 -1 -1 -1 -1 -1 -1 -1
-1 -1 -1 -1 -1 -1 -1 -1 -1 -1 -1 -1 -1 -1 -2 -2 -2 -1 -1 -1 -1 -1 -1 -1 -1 -1 -1 -1 -1 -1 -1 -1 -1 -1 -2 -2 -2 -2
-1 -1 -1 -1 -1 -2 -2 -2 -2 -2 -2 -2 -2 -2 -2 -2 -2 -2 -2 -2 -2 -2 -2 -2 -2 -2 -2 -2 -2 -2 -2 -2 -2 -2 -2 -2 -2 -2
-2 -2 -2 -2 -2 -2 -2 -2 -2 -2 -3 -3 -3 -3 -3 -3 -3 -3 -3 -3 -3 -3 -2 -2 -2 -2 -2 -2 -2 -2 -2 -2 -2 -2 -2 -3 -3 -3
-3 -3 -3 -3 -3 -3 -3 -3 -3 -3 -3 -3 -3 -3 -3 -3 -3 -3 -3 -4 -4 -3 -3 -3 -3 -3 -3 -3 -3 -3 -3 -3 -3 -3 -3 -3 -3 -3
-4 -4 -3 -3 -3 -3 -3 -3 -3 -3 -3 -3 -3 -3 -3 -3 -4 -4 -4 -4 -4 -3 -4 -4 -4 -4 -3 -3 -3 -3 -3 -3 -3 -3 -3 -3 -3 -3
-4 -4 -4 -4 -4 -4 -4 -4 -4 -3 -3 -4 -3 -3 -3 -4 -4 -4 -4 -4 -5 -5 -5 -5 -4 -4 -4 -4 -4 -4 -4 -4 -4 -4 -4 -4 -4 -4
-5 -5 -5 -4 -4 -4 -4 -4 -4 -4 -4 -4 -4 -4 -4 -4 -4 -5 -5 -5 -5 -5 -5 -5 -5 -5 -4 -4 -4 -4 -4 -4 -4 -4 -4 -4 -4 -4
-6 -6 -5 -5 -5 -5 -5 -5 -5 -4 -5 -5 -5 -5 -5 -5 -5 -5 -5 -5 -6 -6 -6 -6 -6 -6 -6 -5 -5 -5 -5 -5 -5 -5 -5 -5 -5 -5
-7 -7 -6 -6 -6 -5 -5 -5 -5 -5 -5 -5 -5 -5 -5 -6 -6 -6 -6 -6 -6 -6 -6 -6 -6 -6 -6 -6 -5 -5 -5 -5 -5 -5 -5 -5 -5 -5
-8 -7 -7 -7 -6 -6 -6 -6 -6 -6 -6 -6 -6 -6 -6 -6 -6 -6 -6 -6 -6 -6 -6 -6 -7 -7 -7 -7 -6 -6 -6 -6 -6 -6 -6 -6 -6 -6
-8 -8 -7 -7 -7 -7 -7 -7 -7 -7 -7 -6 -6 -6 -6 -6 -7 -7 -7 -7 -7 -7 -7 -7 -7 -7 -7 -7 -7 -7 -7 -6 -6 -6 -6 -6 -6 -6
-9 -8 -8 -8 -8 -8 -7 -7 -7 -7 -7 -7 -7 -7 -7 -7 -7 -7 -7 -7 -7 -7 -7 -7 -8 -8 -8 -8 -7 -7 -7 -7 -7 -7 -7 -7 -7 -7
-9 -9 -9 -8 -8 -8 -8 -8 -8 -8 -8 -7 -7 -7 -8 -8 -8 -8 -8 -8 -8 -8 -8 -8 -8 -8 -8 -8 -8 -8 -8 -8 -8 -8 -8 -8 -7 -8
-10 -9 -9 -9 -9 -9 -9 -9 -8 -8 -8 -8 -8 -8 -8 -8 -8 -8 -8 -8 -8 -8 -8 -8 -8 -8 -9 -9 -8 -8 -8 -8 -8 -8 -8 -8 -8 -8
-10 -10 -10 -10 -9 -9 -9 -9 -9 -9 -9 -9 -9 -8 -8 -9 -9 -9 -9 -9 -9 -9 -9 -9 -9 -9 -9 -9 -9 -9 -9 -9 -9 -9 -9 -9 -9 -8
-11 -10 -10 -10 -10 -10 -10 -10 -10 -10 -10 -10 -9 -9 -9 -9 -9 -9 -9 -9 -9 -9 -9 -9 -9 -10 -10 -10 -10 -9 -9 -10 -10 -10 -9 -9 -9 -9
-11 -11 -11 -11 -10 -10 -10 -10 -10 -10 -10 -10 -10 -10 -10 -10 -10 -10 -10 -10 -10 -10 -10 -10 -10 -10 -10 -10 -10 -10 -10 -10 -10 -10 -10 -10 -10 -10
-12 -12 -11 -11 -11 -11 -11 -11 -11 -11 -10 -10 -10 -10 -10 -10 -10 -10 -10 -10 -10 -10 -10 -10 -10 -10 -10 -11 -11 -11 -10 -10 -10 -10 -11 -11 -11 -11
-13 -12 -12 -12 -12 -12 -11 -11 -11 -11 -11 -11 -11 -11 -11 -11 -11 -11 -11 -11 -11 -11 -11 -11 -11 -11 -11 -11 -11 -11 -11 -11 -11 -11 -10 -10 -11 -11
Wind_Speed
7 7 6 5 4 4 4 5 5 5 6 5 4 4 5 5 6 5 6 7 8 8 8 7 7 6 7 7 7 7 7 7 8 8 9 9 9 10
6 7 6 5 5 5 5 5 5 6 6 4 5 4 5 6 8 6 7 8 9 9 9 9 8 8 7 7 7 8 8 9 9 9 9 10 10 10
6 7 7 6 6 6 5 5 5 5 7 5 4 4 4 5 6 6 7 8 8 9 9 10 9 9 8 8 8 8 8 9 10 10 10 11 11 11
8 8 8 7 7 6 6 7 6 6 6 7 5 4 5 5 5 5 6 7 8 9 10 10 10 9 9 9 9 9 9 10 10 10 11 11 11 11
8 8 9 8 8 7 7 7 6 5 5 6 6 4 3 4 4 4 5 5 6 7 8 9 10 10 10 10 10 9 10 10 11 11 11 12 12 12
8 8 9 10 10 9 9 8 7 6 6 6 6 4 4 3 4 4 4 4 4 6 8 9 10 10 11 11 11 10 11 11 12 12 12 12 12 13
7 8 9 11 12 11 9 8 8 7 7 6 6 5 5 4 5 5 6 4 4 4 4 6 7 7 9 11 11 12 12 12 12 12 12 12 13 13
7 7 9 10 12 13 14 13 13 11 10 9 7 8 8 7 6 6 5 4 4 4 4 5 5 5 7 10 12 13 13 13 13 12 12 13 13 14
7 7 7 9 10 9 11 13 14 16 15 11 10 10 9 9 8 8 7 7 5 4 3 5 4 6 8 10 12 13 13 13 13 13 12 13 13 13
7 7 8 7 9 9 9 9 10 11 12 10 10 10 9 9 10 9 8 5 3 3 4 4 4 5 6 9 12 13 13 13 13 12 12 12 12 12
7 7 7 6 10 11 9 9 9 9 11 13 13 12 13 12 10 6 5 5 4 4 3 3 3 3 4 5 9 11 12 11 11 10 11 11 10 10
5 7 9 9 10 11 8 9 10 9 7 8 9 9 9 10 12 9 7 6 4 4 4 3 2 1 3 3 4 7 9 11 11 11 10 10 10 8
5 5 6 9 10 11 9 7 10 8 7 7 6 5 6 6 7 8 8 7 6 4 4 4 3 3 3 3 3 5 6 6 7 9 10 9 9 8
6 5 6 9 10 10 8 8 10 7 4 5 5 5 5 5 6 7 8 7 6 6 7 6 3 4 3 4 4 3 4 5 5 5 7 9 9 10
6 9 9 10 9 7 8 9 7 4 5 5 6 5 5 5 4 4 5 4 4 4 6 7 5 4 4 4 3 3 3 4 5 4 5 5 5 5
6 8 9 8 7 7 6 5 4 5 5 6 5 4 4 4 4 4 4 4 3 2 3 5 7 5 4 5 4 4 4 3 3 4 4 5 6 7
5 3 2 3 3 3 3 3 4 4 4 4 4 4 4 4 4 4 4 4 4 4 3 2 3 4 4 4 4 5 5 4 4 4 3 4 5 7
5 2 3 3 4 4 4 4 4 4 4 4 5 5 5 5 5 4 4 4 4 4 4 3 1 1 1 3 6 5 4 4 3 4 3 4 6 6
4 3 3 4 4 4 4 4 4 4 3 4 5 5 5 5 5 4 4 4 4 4 4 3 3 3 4 4 3 6 4 3 3 4 4 4 6 6
2 3 3 3 3 3 3 3 3 3 3 4 4 4 5 5 5 5 5 5 5 4 4 3 4 5 6 5 3 3 7 5 4 4 4 4 5 8
3 3 3 3 2 2 3 3 3 4 4 4 4 4 5 5 5 5 5 6 5 4 5 4 5 5 2 1 2 3 3 7 7 5 4 4 5 4
3 3 3 3 2 3 3 2 3 3 4 4 4 4 4 5 5 5 5 5 4 4 4 3 2 2 3 4 5 4 4 4 6 8 9 8 4 4
4 3 3 3 2 2 2 3 3 3 4 4 4 4 4 4 4 5 5 5 4 4 3 3 2 2 3 4 4 4 4 4 4 4 5 9 12 13
Wind_Direction
212 210 210 214 210 207 197 189 191 218 239 232 227 230 235 241 250 255 251 250 252 255 255 259 262 261 256 254 256 262 267 269 271 274 277 279 281 284
216 212 214 217 211 208 206 207 205 207 229 224 229 234 241 245 248 251 250 250 250 251 250 253 254 254 255 254 254 257 262 265 266 269 273 275 278 281
220 217 219 215 212 211 211 213 212 204 226 247 245 230 226 238 255 252 251 246 245 246 247 250 250 250 252 253 253 257 261 264 264 265 269 272 275 277
225 221 223 219 216 214 212 216 216 210 214 233 237 226 226 228 236 246 254 244 240 244 247 249 251 252 251 251 253 256 259 262 263 264 266 268 272 276
227 224 224 217 220 220 218 219 220 222 213 219 229 227 226 226 225 247 252 248 244 242 246 247 254 257 255 255 255 258 259 260 261 262 263 265 268 272
236 229 226 221 221 219 220 219 215 217 215 215 223 222 220 214 207 219 244 234 245 246 244 250 259 259 256 256 256 260 261 259 260 261 261 264 267 268
247 238 234 232 230 226 224 218 211 215 215 217 222 226 222 212 216 217 231 238 246 230 237 251 255 254 254 255 257 259 260 256 258 261 263 265 267 268
248 246 242 239 237 238 235 228 217 213 212 214 222 224 227 221 216 219 217 223 242 216 219 254 243 245 249 249 254 261 257 253 256 259 264 268 269 269
247 246 247 244 240 232 236 236 234 229 223 214 216 223 222 211 206 212 213 217 235 219 215 251 241 248 250 251 257 260 257 255 257 258 263 267 270 271
251 249 245 244 238 231 226 227 229 229 232 229 218 221 219 209 204 208 211 219 234 219 206 239 241 248 259 254 255 258 262 258 258 260 262 266 271 275
257 257 250 240 244 241 228 221 225 230 237 236 235 232 227 222 209 189 189 200 227 228 207 221 247 260 259 251 255 257 261 262 262 264 267 269 275 281
264 263 255 250 245 245 228 214 221 225 220 225 232 233 226 216 210 200 192 201 213 227 207 204 227 249 268 260 255 261 263 264 265 267 269 272 274 277
257 259 258 257 254 250 244 224 229 226 210 209 212 214 211 208 209 211 204 201 206 230 206 195 219 225 235 267 270 257 256 260 264 268 269 270 272 270
255 257 256 257 257 253 247 238 237 227 198 196 204 211 213 212 210 211 210 214 220 226 212 201 215 217 229 256 268 269 260 258 260 267 270 274 278 277
258 257 257 256 257 253 250 248 235 212 202 205 211 216 214 207 202 203 198 202 222 230 215 215 209 218 222 235 246 257 269 265 252 254 264 266 270 275
277 268 261 260 260 252 249 246 227 216 212 213 209 205 192 191 196 193 194 190 203 242 236 219 216 210 231 238 234 247 245 244 247 253 264 270 268 263
268 265 258 249 247 242 236 233 224 219 222 213 206 199 201 203 204 190 186 186 201 218 240 240 232 232 237 233 236 238 240 249 253 255 264 275 274 263
279 256 242 240 244 245 238 234 230 221 218 216 208 201 202 202 203 195 190 192 202 213 220 219 202 298 310 283 236 229 234 244 256 261 262 270 279 276
273 259 250 243 239 237 232 231 232 225 215 211 208 200 197 197 195 196 194 196 205 211 212 205 200 202 231 260 262 229 226 246 254 264 263 261 269 277
289 276 262 252 245 235 230 229 226 218 213 213 207 199 194 193 194 196 198 200 207 211 217 216 212 209 218 234 247 256 248 242 238 253 268 276 278 284
293 282 269 256 252 246 239 235 225 218 215 211 207 200 195 193 198 199 200 213 217 215 220 231 230 228 215 190 249 265 259 250 250 252 256 273 285 287
296 290 282 266 253 247 237 233 235 226 214 214 212 205 200 196 199 201 202 206 214 218 227 236 215 204 202 216 237 254 272 282 277 271 261 252 246 241
298 293 289 284 272 255 241 234 233 238 229 217 211 205 200 201 202 203 204 205 206 211 215 230 233 216 227 227 237 253 263 278 288 290 282 269 262 262
Height
1497 1498 1499 1501 1502 1504 1506 1507 1509 1509 1509 1510 1512 1513 1515 1516 1517 1518 1518 1519 1520 1521 1522 1522 1523 1523 1524 1524 1524 1524 1525 1525 1525 1525 1525 1525 1525 1525
1491 1493 1493 1495 1497 1498 1500 1501 1503 1503 1503 1504 1506 1508 1510 1511 1512 1512 1513 1514 1514 1515 1516 1517 1518 1518 1518 1519 1519 1519 1520 1520 1520 1519 1519 1519 1519 1519
1485 1486 1487 1489 1490 1492 1494 1495 1496 1498 1497 1498 1501 1503 1504 1505 1506 1507 1508 1508 1508 1509 1510 1511 1512 1513 1513 1513 1514 1514 1514 1514 1514 1514 1514 1514 1514 1514
1478 1480 1481 1482 1484 1485 1487 1488 1490 1491 1492 1492 1494 1496 1497 1499 1500 1501 1502 1502 1503 1503 1504 1506 1507 1507 1507 1508 1508 1508 1508 1508 1508 1508 1508 1508 1508 1508
1472 1473 1474 1475 1476 1478 1480 1481 1483 1484 1485 1486 1487 1489 1491 1492 1493 1494 1496 1496 1496 1497 1498 1500 1500 1501 1501 1502 1502 1502 1501 1502 1502 1502 1502 1502 1502 1502
1466 1466 1467 1468 1469 1471 1472 1474 1476 1477 1478 1479 1480 1482 1483 1485 1487 1487 1488 1489 1489 1491 1492 1493 1494 1495 1495 1495 1495 1495 1495 1495 1496 1496 1496 1496 1496 1496
1459 1460 1460 1461 1463 1464 1465 1466 1468 1469 1471 1472 1473 1474 1476 1477 1479 1480 1482 1482 1483 1484 1485 1486 1487 1488 1488 1489 1489 1489 1489 1489 1490 1490 1490 1490 1490 1489
1452 1453 1454 1454 1455 1456 1458 1459 1461 1462 1463 1464 1465 1466 1467 1470 1472 1474 1475 1475 1476 1478 1478 1479 1481 1481 1482 1482 1482 1482 1483 1483 1483 1484 1484 1484 1484 1483
1446 1446 1446 1447 1448 1449 1450 1451 1452 1454 1456 1457 1457 1458 1460 1462 1465 1466 1467 1468 1469 1471 1472 1472 1474 1474 1475 1476 1476 1477 1477 1477 1478 1478 1478 1478 1477 1477
1439 1439 1439 1439 1441 1442 1443 1443 1444 1446 1448 1450 1451 1452 1454 1456 1458 1459 1461 1462 1464 1466 1467 1467 1467 1468 1469 1470 1470 1471 1471 1472 1472 1472 1472 1472 1472 1471
1433 1433 1433 1433 1434 1435 1436 1436 1437 1439 1442 1444 1445 1447 1448 1450 1452 1454 1455 1456 1456 1458 1460 1461 1461 1461 1462 1463 1464 1465 1465 1466 1466 1466 1466 1466 1466 1465
1426 1427 1427 1427 1428 1429 1429 1430 1431 1432 1435 1437 1438 1440 1441 1443 1445 1447 1448 1450 1450 1451 1453 1455 1455 1456 1456 1456 1458 1459 1459 1459 1459 1460 1460 1459 1459 1459
1421 1421 1421 1421 1422 1423 1423 1424 1425 1427 1428 1430 1432 1433 1435 1436 1438 1440 1442 1444 1445 1445 1448 1449 1450 1450 1451 1450 1451 1452 1453 1453 1453 1453 1454 1454 1453 1453
1415 1415 1415 1415 1416 1417 1418 1418 1420 1421 1422 1423 1425 1426 1427 1429 1432 1434 1436 1438 1439 1441 1442 1443 1444 1445 1445 1444 1444 1445 1446 1447 1447 1447 1447 1447 1447 1447
1409 1409 1410 1410 1411 1411 1412 1413 1414 1415 1416 1417 1418 1419 1421 1423 1426 1428 1429 1432 1434 1435 1436 1438 1439 1439 1440 1439 1438 1439 1440 1440 1441 1441 1441 1441 1440 1440
1404 1404 1404 1405 1405 1406 1406 1407 1408 1409 1410 1411 1412 1414 1416 1417 1419 1421 1423 1425 1427 1428 1431 1432 1433 1434 1434 1434 1434 1434 1434 1434 1434 1435 1434 1434 1434 1434
1399 1398 1398 1398 1399 1400 1400 1401 1402 1403 1404 1406 1407 1408 1410 1412 1413 1416 1417 1419 1420 1422 1424 1426 1427 1428 1429 1429 1428 1428 1429 1429 1429 1429 1428 1427 1428 1428
1395 1393 1393 1394 1394 1394 1395 1395 1397 1397 1399 1400 1401 1402 1404 1406 1408 1410 1411 1413 1415 1416 1418 1420 1421 1422 1423 1423 1424 1423 1423 1423 1423 1424 1423 1421 1420 1421
1390 1389 1389 1389 1389 1389 1390 1391 1391 1393 1394 1395 1396 1397 1399 1401 1402 1404 1406 1408 1409 1411 1413 1414 1416 1416 1416 1416 1416 1418 1418 1418 1418 1418 1417 1416 1415 1415
1386 1385 1385 1385 1385 1385 1385 1386 1387 1388 1389 1390 1391 1392 1394 1395 1397 1399 1401 1403 1404 1405 1407 1409 1410 1411 1412 1412 1411 1412 1414 1413 1412 1412 1411 1410 1410 1410
1382 1382 1382 1381 1381 1381 1381 1382 1382 1383 1384 1385 1386 1388 1389 1391 1392 1394 1396 1398 1399 1400 1401 1403 1405 1407 1407 1408 1407 1406 1408 1409 1408 1407 1406 1405 1404 1403
1378 1378 1378 1377 1377 1377 1378 1378 1378 1379 1380 1381 1382 1383 1385 1386 1388 1390 1391 1393 1394 1396 1397 1399 1400 1402 1402 1402 1401 1401 1402 1403 1403 1403 1403 1402 1400 1398
1374 1374 1373 1373 1373 1373 1374 1374 1374 1374 1375 1376 1378 1379 1381 1382 1383 1385 1387 1388 1390 1391 1392 1393 1395 1396 1397 1397 1397 1397 1397 1397 1396 1396 1397 1397 1396 1395